Regional Weather Roundup
Issued by NWS Little Rock, AR

Home | Current Version | Previous Version | Graphics & Text | Print | Product List | Glossary On
Versions: 1 2 3 4 5 6 7 8 9 10 11 12 13 14 15 16 17 18 19 20 21 22 23 24 25 26 27
000
ASUS44 KLZK 270105
RWRLZK

WEATHER ROUNDUP FOR ARKANSAS
NATIONAL WEATHER SERVICE LITTLE ROCK AR
800 PM CDT FRI AUG 26 2016

NOTE: "FAIR" INDICATES FEW OR NO CLOUDS BELOW 12,000 FEET WITH NO
SIGNIFICANT WEATHER AND/OR OBSTRUCTIONS TO VISIBILITY.

ARZ001-003-010-029-270200-
NORTHWEST ARKANSAS

CITY           SKY/WX    TMP DP  RH WIND       PRES   REMARKS
FAYETTEVILLE   MOCLDY    72  72 100 CALM      30.07R
FORT SMITH     CLOUDY    79  71  76 E5        30.00S
HARRISON       CLOUDY    78  71  79 SE6       30.08R
BENTONVILLE    MOCLDY    73  66  78 CALM      30.08R
ROGERS         CLOUDY    73  70  90 SE3       30.08R
SILOAM SPGS    CLOUDY    72  63  73 E5        30.06F
HIGHFILL       CLOUDY    74  72  93 CALM      30.06R
SPRINGDALE     CLEAR     75  72  88 SE3       30.09R
$$

ARZ004-005-016-270200-
NORTH CENTRAL ARKANSAS

CITY           SKY/WX    TMP DP  RH WIND       PRES   REMARKS
BATESVILLE     PTCLDY    81  70  69 E14G20    30.06R
FLIPPIN        PTCLDY    79  70  73 S3        30.03S
MTN HOME       CLOUDY    78  74  87 CALM      30.05R
$$

ARZ040-041-270200-
WEST CENTRAL ARKANSAS

CITY           SKY/WX    TMP DP  RH WIND       PRES   REMARKS
MENA           CLEAR     79  77  94 CALM      30.04S
MOUNT IDA      CLEAR     80  75  84 CALM      30.02R HX  85
$$

ARZ009-017-025-026-028-270200-
NORTHEAST ARKANSAS

CITY           SKY/WX    TMP DP  RH WIND       PRES   REMARKS
CORNING          N/A     73  73 100 E12G18    30.05F
JONESBORO      CLOUDY    74  71  91 NE8       30.04F
NEWPORT        LGT RAIN  76  72  87 NE3       30.06R
WALNUT RIDGE   CLOUDY    75  70  83 SE7       30.06R
BLYTHEVILLE    LGT RAIN  73  32  22 NE6       30.05F
$$

ARZ022-023-033-042-044-270200-
CENTRAL ARKANSAS

CITY           SKY/WX    TMP DP  RH WIND       PRES   REMARKS
LITTLE ROCK    MOCLDY    84  74  71 E13       30.02R HX  91
N LITTLE ROCK    N/A     81  73  76 E9G23     30.01R HX  86
JACKSONVILLE   CLOUDY    81  75  82 E7        30.03R HX  87
SEARCY         PTCLDY    77  74  90 E8        30.06R
HOT SPRINGS    PTCLDY    82  73  74 CALM      30.02R HX  87
RUSSELLVILLE   CLEAR     80  75  84 CALM      30.01R HX  85
$$

ARZ036-270200-
EAST ARKANSAS

CITY           SKY/WX    TMP DP  RH WIND       PRES   REMARKS
WEST MEMPHIS   CLOUDY    75  71  87 NE3       30.03S
$$

ARZ050-053-066-070-073-270200-
SOUTHWEST ARKANSAS

CITY           SKY/WX    TMP DP  RH WIND       PRES   REMARKS
ARKADELPHIA    FAIR      82  80  94 CALM      30.00S HX  94
TEXARKANA      PTCLDY    80  74  81 CALM      30.00S HX  85
EL DORADO      PTCLDY    81  78  91 CALM      30.00R HX  89
DE QUEEN       PTCLDY    80  79  96 CALM      29.98F HX  88
$$

ARZ056-057-069-270200-
SOUTHEAST ARKANSAS

CITY           SKY/WX    TMP DP  RH WIND       PRES   REMARKS
PINE BLUFF     MOCLDY    79  71  76 CALM      30.02R
STUTTGART      MOCLDY    79  72  78 E6        30.03S
MONTICELLO     CLOUDY    82  74  76 SE3       30.02R HX  88

$$






USA.gov is the U.S. government's official web portal to all federal, state and local government web resources and services.